[[{"header":{"parameterUnit":"m.s-1","parameterCategory":1,"la1":30.2991,"la2":30.254,"lo1":-89.0895,"lo2":-89.0444,"dy":0.0017,"dx":0.0017,"nx":28,"ny":28,"refTime":"2024-12-19T09:00:00:Z","depth":0,"parameterNumber":2,"parameterNumberName":"U-component_of_WINDS"},"data":[0,0,0,0,0,0,0,0,0,0,0,0,0,0,0,0,0,0,0,0,0,0,0,0,0,0,0,0,0,0,0,0,0,0,0,0,0,0,0,0,0,0,0,0,0,0,0,0,0,0,0,0,0,0,0,0,0,0,1.8963,1.8964,0,1.9028,1.9029,1.903,1.9033,1.9033,1.9032,1.9031,1.9098,1.91,1.9103,0,0,0,0,0,0,0,0,0,0,0,0,0,1.8844,1.8846,1.8963,1.8964,1.8965,1.9028,1.9029,1.903,1.9034,1.9033,1.9032,1.9031,1.9097,1.91,1.9103,0,0,0,0,0,0,0,0,0,0,0,0,0,1.8901,1.8847,1.8963,1.8974,1.8976,1.9028,1.9029,1.903,1.9034,1.9033,1.9031,1.903,1.9096,1.91,1.9103,1.9149,0,0,1.9115,1.9116,0,0,0,0,0,0,0,0,1.8898,1.8905,1.8972,1.8974,1.8976,1.9022,1.9011,1.907,1.9034,1.9012,1.9031,1.903,1.9073,1.9079,1.9094,1.9152,1.9155,1.9115,1.9117,1.9119,1.912,0,0,0,0,0,0,0,1.8894,1.8903,1.8989,1.8973,1.8975,1.8977,1.8984,1.9023,1.9048,1.9014,1.9014,1.9022,1.9074,1.909,1.9095,1.9156,1.9115,1.9118,1.912,1.9122,1.9256,1.9258,0,0,0,0,0,0,1.8888,1.8899,1.8987,1.8991,1.8933,1.898,1.8987,1.9008,1.9048,1.9053,1.9023,1.9022,1.9084,1.9091,1.9097,1.9154,1.9119,1.9122,1.9124,1.9255,1.9257,1.9258,0,0,0,0,0,0,1.8885,1.8895,1.8984,1.8945,1.8957,1.8983,1.9006,1.901,1.9026,1.9054,1.9059,1.9034,1.9084,1.9092,1.9136,1.9156,1.9124,1.9127,1.9253,1.9255,1.9257,1.9267,0,0,0,0,0,0,1.8882,1.8894,1.8911,1.8946,1.8959,1.9022,1.9007,1.9012,1.9032,1.9031,1.9066,1.9071,1.9083,1.9131,1.914,1.9161,1.913,1.9252,1.9254,1.9257,1.9265,1.9269,1.9273,0,0,0,0,0,1.8877,1.8911,1.8912,1.8923,1.8981,1.9023,1.903,1.9044,1.9033,1.9051,1.907,1.907,1.9153,1.9135,1.9146,1.9168,1.925,1.9254,1.9256,1.9263,1.9268,1.9273,0,0,0,0,0,0,1.8878,1.8916,1.8917,1.8963,1.899,1.9023,1.9046,1.9048,1.9078,1.9076,1.9092,1.91,1.9144,1.916,1.914,1.9215,1.9201,1.9206,1.9202,1.9207,1.9211,1.9206,1.9133,0,0,0,0,0,1.8884,1.8915,1.8946,1.8984,1.8997,1.9019,1.9038,1.9046,1.9074,1.9085,1.9107,1.9135,1.9168,1.9188,1.922,1.9268,1.9276,1.9289,1.9292,1.9295,1.93,1.9328,1.9334,1.9268,1.9268,1.9268,0,0,1.8895,1.892,1.8938,1.8984,1.9006,1.9038,1.9028,1.9062,1.9087,1.9091,1.9134,1.9151,1.9183,1.923,1.9251,1.9245,1.932,1.9299,1.9302,1.9304,1.9332,1.9338,1.9343,1.927,1.927,1.9269,0,0,1.8933,1.8955,1.8989,1.9011,1.9044,1.9059,1.9067,1.9101,1.9112,1.9156,1.916,1.919,1.9245,1.9268,1.9287,1.9336,1.9337,1.9346,1.9365,1.9392,1.9398,1.9402,1.942,1.9427,1.935,1.935,1.935,0,1.8944,1.8992,1.9006,1.9041,1.9061,1.9067,1.9102,1.9123,1.9165,1.9179,1.9172,1.9242,1.9264,1.9317,1.9329,1.9344,1.9354,1.9341,1.9396,1.9401,1.9405,1.9423,1.9429,1.9351,1.9351,1.935,1.935,0,1.9003,1.9037,1.9061,1.9101,1.9125,1.9159,1.918,1.9202,1.9209,1.9225,1.927,1.9297,1.9334,1.9347,1.9354,1.9402,1.9397,1.9392,1.9378,1.9412,1.9429,1.9436,1.9352,1.9352,1.9351,1.9351,0,0,1.9042,1.9091,1.91,1.9119,1.9157,1.9183,1.9219,1.9256,1.9275,1.9304,1.9335,1.9383,1.9379,1.9401,1.941,1.9434,1.9472,1.9427,1.9428,1.9435,1.9528,1.9531,1.9538,1.9474,1.9475,1.9476,1.9525,0,1.9084,1.9147,1.9162,1.9217,1.9249,1.9256,1.9287,1.9314,1.9331,1.9361,1.9379,1.9413,1.9405,1.9418,1.9442,1.9463,1.9491,1.9459,1.9503,1.9505,1.9495,1.9547,1.955,1.9595,1.9532,1.9533,1.9534,0,1.9141,1.9172,1.923,1.9265,1.9279,1.9307,1.9343,1.9371,1.9403,1.9413,1.9438,1.9446,1.9484,1.9469,1.9523,1.9501,1.952,1.9533,1.9535,1.9539,1.9521,1.9553,1.9609,1.9616,1.9544,1.9543,1.9542,0,1.9164,1.9221,1.9263,1.9279,1.9321,1.934,1.9359,1.9389,1.9411,1.9443,1.9457,1.9493,1.9513,1.9541,1.9558,1.9545,1.9611,1.9596,1.9621,1.9621,1.9634,1.9633,1.9694,1.9646,1.9646,1.9646,1.9646,0,1.921,1.9245,1.9274,1.93,1.934,1.9357,1.9397,1.9415,1.9443,1.9473,1.9482,1.951,1.9531,1.9563,1.9577,1.962,1.9629,1.9639,1.9642,1.9638,1.9637,1.965,1.9648,1.9648,1.9648,1.9647,1.9647,0,1.9242,1.9262,1.9309,1.9345,1.9356,1.9384,1.9415,1.9441,1.9458,1.9497,1.9507,1.9534,1.9572,1.9593,1.964,1.965,1.9698,1.9699,1.9687,1.9688,1.9712,1.971,1.9784,1.9795,1.974,1.974,1.9741,0,1.9269,1.9297,1.9336,1.9357,1.9376,1.941,1.9433,1.9452,1.9475,1.9514,1.9535,1.9574,1.9606,1.9666,1.969,1.9727,1.973,1.9754,1.9735,1.9731,1.9731,1.9729,1.9732,1.9756,1.9757,1.9757,1.9758,0,1.9316,1.9325,1.9358,1.9394,1.9421,1.9451,1.948,1.9497,1.9521,1.9547,1.9586,1.9611,1.966,1.9698,1.9737,1.9757,1.9762,1.9763,1.9771,1.9767,1.9759,1.9764,1.9696,1.9761,1.9761,1.9761,1.9761,1.976,1.9347,1.9372,1.9405,1.9441,1.9465,1.9493,1.9519,1.954,1.9573,1.9615,1.9624,1.9666,1.9698,1.9751,1.9772,1.9805,1.9801,1.9811,1.9814,1.9817,1.9818,1.9754,1.9812,1.9812,1.9812,1.9812,1.9812,0,1.9395,1.9416,1.9449,1.949,1.9519,1.9522,1.9555,1.9579,1.9615,1.9645,1.9677,1.9722,1.976,1.9788,1.9827,1.9848,1.9852,1.9858,1.9856,1.9861,1.9819,1.9809,1.9855,1.9855,1.9855,1.9855,1.9855,1.9855,1.9423,1.9466,1.9479,1.9535,1.9557,1.9597,1.9616,1.9642,1.9666,1.9717,1.9748,1.9767,1.9796,1.9838,1.9873,1.988,1.9894,1.99,1.9908,1.9868,1.9864,1.9859,1.985,1.9903,1.9903,1.9947,1.9947,1.9948]},{"header":{"parameterUnit":"m.s-1","parameterCategory":1,"la1":30.2991,"la2":30.254,"lo1":-89.0895,"lo2":-89.0444,"dy":0.0017,"dx":0.0017,"nx":28,"ny":28,"refTime":"2024-12-19T09:00:00:Z","depth":0,"parameterNumber":3,"parameterNumberName":"V-component_of_WINDS"},"data":[0,0,0,0,0,0,0,0,0,0,0,0,0,0,0,0,0,0,0,0,0,0,0,0,0,0,0,0,0,0,0,0,0,0,0,0,0,0,0,0,0,0,0,0,0,0,0,0,0,0,0,0,0,0,0,0,0,0,-2.3485,-2.3486,0,-2.3553,-2.3554,-2.3555,-2.3562,-2.3562,-2.3561,-2.356,-2.3626,-2.3628,-2.363,0,0,0,0,0,0,0,0,0,0,0,0,0,-2.3358,-2.3361,-2.3485,-2.3486,-2.3487,-2.3553,-2.3554,-2.3555,-2.3563,-2.3562,-2.3561,-2.356,-2.3625,-2.3628,-2.363,0,0,0,0,0,0,0,0,0,0,0,0,0,-2.3418,-2.3361,-2.3485,-2.3499,-2.3501,-2.3553,-2.3554,-2.3555,-2.3563,-2.3562,-2.3561,-2.356,-2.3624,-2.3627,-2.3631,-2.3673,0,0,-2.3642,-2.3643,0,0,0,0,0,0,0,0,-2.3415,-2.3423,-2.3496,-2.3498,-2.35,-2.3548,-2.3533,-2.3594,-2.3563,-2.3539,-2.356,-2.3559,-2.36,-2.3606,-2.3621,-2.3676,-2.3679,-2.3642,-2.3644,-2.3646,-2.3647,0,0,0,0,0,0,0,-2.3411,-2.342,-2.3512,-2.3497,-2.3499,-2.35,-2.3508,-2.3545,-2.3574,-2.3541,-2.3542,-2.355,-2.3601,-2.3617,-2.3622,-2.368,-2.3642,-2.3645,-2.3647,-2.3649,-2.3775,-2.3776,0,0,0,0,0,0,-2.3405,-2.3417,-2.351,-2.3514,-2.3454,-2.3503,-2.3512,-2.3534,-2.3574,-2.3579,-2.3551,-2.355,-2.3612,-2.3618,-2.3625,-2.3678,-2.3646,-2.3649,-2.3651,-2.3773,-2.3775,-2.3776,0,0,0,0,0,0,-2.3402,-2.3413,-2.3507,-2.3466,-2.3478,-2.3507,-2.3531,-2.3536,-2.3552,-2.3581,-2.3586,-2.3562,-2.3611,-2.362,-2.3662,-2.368,-2.365,-2.3654,-2.3772,-2.3774,-2.3776,-2.3785,0,0,0,0,0,0,-2.3398,-2.3412,-2.3429,-2.3466,-2.348,-2.3544,-2.3532,-2.3538,-2.3558,-2.3558,-2.3593,-2.3598,-2.3611,-2.3656,-2.3665,-2.3685,-2.3656,-2.377,-2.3773,-2.3775,-2.3783,-2.3787,-2.379,0,0,0,0,0,-2.3394,-2.3427,-2.3429,-2.3441,-2.3502,-2.3545,-2.3553,-2.3568,-2.356,-2.3577,-2.3596,-2.3597,-2.3677,-2.366,-2.367,-2.3692,-2.3769,-2.3772,-2.3775,-2.3781,-2.3786,-2.379,0,0,0,0,0,0,-2.3389,-2.3432,-2.3435,-2.3482,-2.351,-2.3546,-2.3568,-2.3572,-2.3602,-2.36,-2.3617,-2.3625,-2.3667,-2.3683,-2.3664,-2.3735,-2.3722,-2.3727,-2.3723,-2.3728,-2.3732,-2.3727,-2.3659,0,0,0,0,0,-2.3394,-2.3426,-2.3461,-2.3499,-2.3513,-2.3538,-2.3557,-2.3568,-2.3597,-2.3608,-2.363,-2.3657,-2.3689,-2.3709,-2.3739,-2.3785,-2.3793,-2.3804,-2.3808,-2.381,-2.3815,-2.3842,-2.3848,-2.3785,-2.3785,-2.3785,0,0,-2.3403,-2.343,-2.345,-2.3499,-2.3522,-2.3555,-2.3548,-2.3582,-2.3607,-2.3613,-2.3655,-2.3672,-2.3703,-2.3748,-2.3769,-2.3763,-2.3834,-2.3814,-2.3816,-2.3819,-2.3845,-2.3851,-2.3857,-2.3787,-2.3787,-2.3787,0,0,-2.3437,-2.3461,-2.3496,-2.352,-2.3556,-2.3573,-2.3581,-2.3617,-2.363,-2.3673,-2.3678,-2.3707,-2.376,-2.3783,-2.3802,-2.3847,-2.3849,-2.3856,-2.3875,-2.3901,-2.3906,-2.391,-2.3928,-2.3934,-2.386,-2.386,-2.386,0,-2.3444,-2.3495,-2.3513,-2.3549,-2.3571,-2.358,-2.3615,-2.3637,-2.368,-2.3695,-2.3688,-2.3757,-2.3778,-2.3829,-2.3841,-2.3855,-2.3865,-2.3853,-2.3904,-2.3909,-2.3913,-2.393,-2.3937,-2.3861,-2.3861,-2.3861,-2.3861,0,-2.3503,-2.3538,-2.3562,-2.3607,-2.3631,-2.3666,-2.3689,-2.3711,-2.3719,-2.3737,-2.3781,-2.3807,-2.3844,-2.3857,-2.3864,-2.3909,-2.3905,-2.3901,-2.3888,-2.392,-2.3936,-2.3943,-2.3862,-2.3862,-2.3861,-2.3861,0,0,-2.3535,-2.3591,-2.36,-2.3621,-2.3662,-2.3689,-2.3725,-2.3763,-2.3783,-2.3812,-2.3843,-2.3889,-2.3887,-2.3908,-2.3917,-2.394,-2.3977,-2.3934,-2.3935,-2.3942,-2.4031,-2.4035,-2.4042,-2.3978,-2.398,-2.3981,-2.4029,0,-2.3576,-2.3642,-2.366,-2.3716,-2.375,-2.376,-2.3791,-2.3819,-2.3837,-2.3867,-2.3885,-2.3919,-2.3911,-2.3925,-2.3948,-2.3968,-2.3995,-2.3964,-2.4007,-2.4009,-2.4001,-2.405,-2.4054,-2.4098,-2.4035,-2.4036,-2.4037,0,-2.3632,-2.3666,-2.3726,-2.3765,-2.3779,-2.3808,-2.3845,-2.3874,-2.3906,-2.3918,-2.3943,-2.3951,-2.3988,-2.3973,-2.4025,-2.4004,-2.4023,-2.4035,-2.4037,-2.4043,-2.4026,-2.4059,-2.4113,-2.412,-2.4047,-2.4046,-2.4045,0,-2.3652,-2.3712,-2.3757,-2.3774,-2.382,-2.384,-2.386,-2.3891,-2.3914,-2.3946,-2.3961,-2.3996,-2.4016,-2.4043,-2.406,-2.4047,-2.4112,-2.4097,-2.4122,-2.4122,-2.4136,-2.4135,-2.4195,-2.4145,-2.4145,-2.4145,-2.4145,0,-2.3696,-2.3733,-2.3767,-2.3794,-2.3836,-2.3856,-2.3896,-2.3916,-2.3944,-2.3975,-2.3984,-2.4013,-2.4034,-2.4065,-2.4079,-2.4121,-2.4129,-2.4139,-2.4143,-2.414,-2.4139,-2.4153,-2.4151,-2.4147,-2.4146,-2.4146,-2.4146,0,-2.3726,-2.375,-2.3799,-2.384,-2.3851,-2.388,-2.3914,-2.3941,-2.3959,-2.3999,-2.4009,-2.4037,-2.4075,-2.4095,-2.4141,-2.415,-2.4198,-2.4199,-2.4188,-2.419,-2.4215,-2.4213,-2.4287,-2.4298,-2.424,-2.424,-2.424,0,-2.3753,-2.3782,-2.3827,-2.385,-2.3871,-2.3906,-2.393,-2.3951,-2.3976,-2.4016,-2.4038,-2.4077,-2.4109,-2.4169,-2.4193,-2.4228,-2.4231,-2.4255,-2.4236,-2.4233,-2.4234,-2.4232,-2.4236,-2.4258,-2.4259,-2.4259,-2.426,0,-2.3799,-2.3811,-2.3846,-2.3886,-2.3915,-2.3947,-2.3979,-2.3996,-2.4022,-2.4049,-2.4089,-2.4115,-2.4164,-2.4202,-2.424,-2.4259,-2.4264,-2.4265,-2.4273,-2.4271,-2.4264,-2.427,-2.4199,-2.4263,-2.4263,-2.4263,-2.4263,-2.4262,-2.383,-2.3857,-2.3894,-2.3933,-2.396,-2.399,-2.4018,-2.4041,-2.4076,-2.4119,-2.4128,-2.4171,-2.4204,-2.4256,-2.4276,-2.431,-2.4305,-2.4316,-2.4319,-2.4322,-2.4324,-2.4258,-2.4316,-2.4316,-2.4316,-2.4316,-2.4316,0,-2.3878,-2.3903,-2.3939,-2.3985,-2.4016,-2.402,-2.4056,-2.4081,-2.4119,-2.415,-2.4183,-2.423,-2.4268,-2.4296,-2.4334,-2.4356,-2.4359,-2.4365,-2.4364,-2.4369,-2.4325,-2.4315,-2.4362,-2.4362,-2.4362,-2.4362,-2.4362,-2.4362,-2.3907,-2.3955,-2.3971,-2.4031,-2.4055,-2.4099,-2.412,-2.4147,-2.4173,-2.4225,-2.4258,-2.4277,-2.4307,-2.4348,-2.4383,-2.439,-2.4404,-2.4411,-2.4418,-2.4377,-2.4372,-2.4367,-2.4358,-2.4413,-2.4414,-2.446,-2.446,-2.4461]}]]